{"data":{"norad_id":60099,"epoch":"2026-05-24T23:44:33.018720Z","epoch_age_seconds":66052,"freshness":"FRESH","line1":"1 60099U 24117J   26144.98927105  .00000595  00000+0  32213-4 0  9990","line2":"2 60099  53.1614  42.3372 0001295  83.0683 277.0465 15.30191414108573","mean_motion":15.30191414,"eccentricity":0.0001295,"inclination_deg":53.1614,"raan_deg":42.3372,"arg_perigee_deg":83.0683,"mean_anomaly_deg":277.0465,"bstar":3.2213e-5,"rev_number":10857,"period_min":94.105873737441,"perigee_km":474.35319337466,"apogee_km":476.12821820046,"semimajor_km":6853.3777057876,"source":"CELESTRAK","updated_at":"2026-05-25T13:38:19.161479Z"}}